[[{"header":{"parameterUnit":"m.s-1","parameterCategory":1,"la1":30.2991,"la2":30.254,"lo1":-89.0895,"lo2":-89.0444,"dy":0.0017,"dx":0.0017,"nx":28,"ny":28,"refTime":"2024-08-11T21:00:00:Z","depth":0,"parameterNumber":2,"parameterNumberName":"U-component_of_WINDS"},"data":[0,0,0,0,0,0,0,0,0,0,0,0,0,0,0,0,0,0,0,0,0,0,0,0,0,0,0,0,0,0,0,0,0,0,0,0,0,0,0,0,0,0,0,0,0,0,0,0,0,0,0,0,0,0,0,0,0,0,1.195,1.1951,0,1.2079,1.208,1.2082,1.2115,1.2114,1.2113,1.2113,1.2249,1.2253,1.2258,0,0,0,0,0,0,0,0,0,0,0,0,0,1.1736,1.174,1.195,1.1951,1.1953,1.2078,1.208,1.2082,1.2115,1.2114,1.2113,1.2112,1.2248,1.2253,1.2258,0,0,0,0,0,0,0,0,0,0,0,0,0,1.1843,1.1741,1.1949,1.1984,1.1989,1.2078,1.208,1.2082,1.2115,1.2114,1.2113,1.2112,1.2246,1.2252,1.2259,1.2324,0,0,1.2279,1.2282,0,0,0,0,0,0,0,0,1.1837,1.1851,1.1978,1.1982,1.1987,1.2079,1.2055,1.2163,1.2116,1.2068,1.2113,1.2111,1.2194,1.2205,1.2232,1.233,1.2336,1.228,1.2284,1.2286,1.2288,0,0,0,0,0,0,0,1.183,1.1846,1.2001,1.198,1.1985,1.1995,1.2009,1.2076,1.2136,1.2072,1.2074,1.2089,1.2196,1.2225,1.2235,1.2338,1.2279,1.2285,1.2289,1.2292,1.2495,1.2497,0,0,0,0,0,0,1.1815,1.1839,1.1997,1.2005,1.1908,1.2,1.2015,1.2051,1.2135,1.2147,1.209,1.209,1.2215,1.2227,1.224,1.2321,1.2286,1.2292,1.2296,1.2494,1.2496,1.2497,0,0,0,0,0,0,1.1811,1.1829,1.1992,1.1923,1.1944,1.2005,1.2045,1.2054,1.2083,1.2149,1.216,1.2108,1.2214,1.2231,1.2302,1.2326,1.2295,1.2301,1.2492,1.2494,1.2496,1.2483,0,0,0,0,0,0,1.1804,1.1827,1.1852,1.1923,1.1948,1.205,1.2046,1.2058,1.2094,1.2095,1.2169,1.218,1.2215,1.2292,1.2309,1.2335,1.2307,1.249,1.2493,1.2496,1.2482,1.2484,1.2487,0,0,0,0,0,1.1797,1.1844,1.1853,1.1872,1.1979,1.2052,1.2066,1.2103,1.2096,1.2121,1.2163,1.2178,1.2321,1.2299,1.2318,1.2346,1.2489,1.2492,1.2496,1.248,1.2484,1.2487,0,0,0,0,0,0,1.1776,1.1854,1.1865,1.1936,1.1987,1.2057,1.209,1.2106,1.2161,1.216,1.2205,1.2221,1.229,1.2325,1.23,1.2413,1.2405,1.2412,1.2387,1.2391,1.2394,1.2384,1.2312,0,0,0,0,0,1.1779,1.183,1.1896,1.1953,1.1978,1.2029,1.2062,1.2086,1.2141,1.2163,1.2211,1.2265,1.2322,1.2359,1.2415,1.2487,1.2504,1.2516,1.2518,1.252,1.2526,1.2566,1.2573,1.2508,1.2508,1.2508,0,0,1.1787,1.1836,1.1866,1.195,1.1992,1.2045,1.2047,1.2103,1.2143,1.2173,1.2242,1.2279,1.2342,1.2413,1.2448,1.2446,1.2547,1.2524,1.2525,1.253,1.257,1.2577,1.2582,1.251,1.251,1.2509,0,0,1.1828,1.1871,1.1922,1.1964,1.2027,1.2061,1.2073,1.2141,1.2166,1.2236,1.2259,1.2308,1.2405,1.2449,1.2484,1.2541,1.2556,1.2558,1.2572,1.2611,1.2616,1.2621,1.2641,1.2647,1.2563,1.2563,1.2563,0,1.1831,1.191,1.1947,1.2001,1.2037,1.2065,1.2118,1.2157,1.2236,1.226,1.2256,1.2378,1.2423,1.2505,1.2518,1.2546,1.2562,1.255,1.2612,1.2617,1.2622,1.2642,1.2649,1.2563,1.2563,1.2563,1.2563,0,1.1909,1.1964,1.1998,1.2071,1.2112,1.2165,1.2211,1.2248,1.2268,1.2303,1.2374,1.2428,1.2495,1.2517,1.2538,1.2602,1.2598,1.2603,1.2595,1.2627,1.2646,1.2654,1.2563,1.2563,1.2563,1.2563,0,0,1.1941,1.2033,1.2045,1.2079,1.215,1.2193,1.2248,1.2312,1.2342,1.2396,1.2443,1.2524,1.2528,1.2568,1.2595,1.2629,1.267,1.2629,1.2631,1.2634,1.2743,1.2739,1.2747,1.268,1.2682,1.2683,1.2737,0,1.1991,1.2088,1.2123,1.2203,1.2254,1.228,1.2328,1.2378,1.2411,1.246,1.2499,1.2555,1.2556,1.258,1.2615,1.2657,1.2692,1.2654,1.2725,1.2727,1.2708,1.2757,1.2753,1.2802,1.2745,1.2747,1.2747,0,1.2062,1.2114,1.2199,1.2263,1.2286,1.2328,1.2389,1.2435,1.2492,1.2514,1.2558,1.2582,1.2641,1.263,1.2712,1.2685,1.2717,1.2742,1.2745,1.2753,1.2739,1.2766,1.2819,1.2826,1.276,1.2759,1.2758,0,1.2075,1.2168,1.223,1.2258,1.2335,1.2363,1.2397,1.2452,1.2488,1.2542,1.2566,1.2627,1.266,1.2707,1.2747,1.2736,1.2826,1.2819,1.2847,1.2846,1.2865,1.2863,1.2922,1.2885,1.2885,1.2885,1.2885,0,1.2127,1.2178,1.2237,1.2275,1.2333,1.2373,1.243,1.2465,1.2514,1.2561,1.2588,1.2631,1.2682,1.2732,1.2764,1.2827,1.2842,1.2862,1.287,1.2859,1.2857,1.2881,1.2878,1.2887,1.2887,1.2886,1.2886,0,1.2152,1.2194,1.2264,1.233,1.2348,1.2387,1.2445,1.2484,1.2518,1.2577,1.2593,1.2648,1.2708,1.2752,1.2831,1.2852,1.292,1.2928,1.29,1.2904,1.2929,1.2926,1.3006,1.3019,1.2973,1.2973,1.2974,0,1.2182,1.2222,1.2292,1.2324,1.2357,1.2409,1.2445,1.2486,1.2524,1.2591,1.2621,1.2683,1.2735,1.283,1.2878,1.2938,1.2947,1.2971,1.2957,1.2945,1.2947,1.2944,1.2948,1.2973,1.2974,1.2974,1.2974,0,1.2231,1.2249,1.23,1.2358,1.24,1.2448,1.2497,1.2522,1.2572,1.2613,1.2673,1.2713,1.2792,1.2854,1.2918,1.2954,1.2973,1.2978,1.2988,1.2977,1.2959,1.2969,1.2905,1.2976,1.2976,1.2976,1.2976,1.2976,1.2259,1.2295,1.2349,1.2405,1.2446,1.249,1.253,1.2569,1.262,1.2686,1.2708,1.2771,1.2827,1.2915,1.2952,1.3002,1.3002,1.3016,1.302,1.3023,1.3021,1.2951,1.3015,1.3015,1.3015,1.3015,1.3015,0,1.2308,1.2344,1.2395,1.2461,1.2505,1.2517,1.2572,1.2608,1.2663,1.2712,1.2762,1.2832,1.2891,1.2943,1.3005,1.3036,1.3046,1.305,1.3049,1.3056,1.3019,1.3004,1.3041,1.3041,1.3041,1.3041,1.3041,1.3041,1.2339,1.24,1.2425,1.2507,1.2544,1.2604,1.2634,1.2676,1.2715,1.2792,1.2841,1.2873,1.2925,1.299,1.3045,1.3059,1.308,1.3083,1.3099,1.3063,1.3059,1.3056,1.3042,1.3087,1.3087,1.3133,1.3133,1.3133]},{"header":{"parameterUnit":"m.s-1","parameterCategory":1,"la1":30.2991,"la2":30.254,"lo1":-89.0895,"lo2":-89.0444,"dy":0.0017,"dx":0.0017,"nx":28,"ny":28,"refTime":"2024-08-11T21:00:00:Z","depth":0,"parameterNumber":3,"parameterNumberName":"V-component_of_WINDS"},"data":[0,0,0,0,0,0,0,0,0,0,0,0,0,0,0,0,0,0,0,0,0,0,0,0,0,0,0,0,0,0,0,0,0,0,0,0,0,0,0,0,0,0,0,0,0,0,0,0,0,0,0,0,0,0,0,0,0,0,3.3188,3.3188,0,3.3142,3.3141,3.3141,3.313,3.3131,3.3131,3.3131,3.3076,3.3074,3.3072,0,0,0,0,0,0,0,0,0,0,0,0,0,3.3263,3.3261,3.3188,3.3188,3.3187,3.3142,3.3141,3.3141,3.313,3.3131,3.3131,3.3131,3.3077,3.3074,3.3072,0,0,0,0,0,0,0,0,0,0,0,0,0,3.3224,3.3261,3.3188,3.3177,3.3175,3.3142,3.3141,3.314,3.313,3.3131,3.3131,3.3132,3.3077,3.3075,3.3072,3.3045,0,0,3.3064,3.3063,0,0,0,0,0,0,0,0,3.3227,3.3222,3.3179,3.3177,3.3176,3.3143,3.3147,3.3108,3.313,3.3147,3.3131,3.3132,3.3097,3.3093,3.3083,3.3042,3.304,3.3063,3.3062,3.3061,3.306,0,0,0,0,0,0,0,3.3229,3.3224,3.317,3.3178,3.3176,3.3172,3.3167,3.314,3.3119,3.3146,3.3145,3.314,3.3096,3.3085,3.3081,3.3039,3.3064,3.3061,3.306,3.3058,3.2975,3.2974,0,0,0,0,0,0,3.3235,3.3226,3.3171,3.3168,3.3203,3.317,3.3165,3.3152,3.312,3.3115,3.3139,3.3139,3.309,3.3085,3.3079,3.3046,3.3061,3.3058,3.3057,3.2975,3.2975,3.2974,0,0,0,0,0,0,3.3237,3.323,3.3173,3.3197,3.3189,3.3168,3.3155,3.3151,3.314,3.3115,3.3111,3.3132,3.309,3.3083,3.3054,3.3044,3.3057,3.3055,3.2976,3.2975,3.2974,3.2979,0,0,0,0,0,0,3.3239,3.3231,3.3221,3.3197,3.3188,3.315,3.3154,3.315,3.3137,3.3136,3.3107,3.3103,3.309,3.3058,3.3052,3.304,3.3052,3.2977,3.2976,3.2975,3.2979,3.2978,3.2977,0,0,0,0,0,3.3241,3.3222,3.3221,3.3214,3.3176,3.315,3.3144,3.3132,3.3136,3.3125,3.311,3.3104,3.3047,3.3056,3.3048,3.3036,3.2977,3.2976,3.2975,3.298,3.2978,3.2977,0,0,0,0,0,0,3.3243,3.3219,3.3217,3.319,3.3172,3.3148,3.3134,3.313,3.3109,3.311,3.3093,3.3086,3.3058,3.3044,3.3055,3.3008,3.3012,3.3009,3.3018,3.3017,3.3016,3.3019,3.305,0,0,0,0,0,3.3241,3.3223,3.3202,3.318,3.3172,3.3155,3.3143,3.3135,3.3115,3.3107,3.3089,3.3068,3.3045,3.303,3.3008,3.2978,3.2971,3.2966,3.2965,3.2964,3.2961,3.2944,3.2942,3.297,3.297,3.297,0,0,3.3234,3.3219,3.3209,3.318,3.3166,3.3147,3.3149,3.3127,3.3113,3.3103,3.3075,3.3062,3.3037,3.3008,3.2994,3.2995,3.2952,3.2962,3.2961,3.2959,3.2943,3.294,3.2938,3.2969,3.2969,3.2969,0,0,3.3214,3.3201,3.3182,3.3168,3.3148,3.3137,3.3132,3.3109,3.3101,3.3074,3.3067,3.3048,3.3009,3.2992,3.2978,3.2955,3.2948,3.2948,3.294,3.2925,3.2923,3.2921,3.2912,3.2909,3.2945,3.2945,3.2945,0,3.3208,3.3181,3.3172,3.3152,3.314,3.3134,3.3114,3.31,3.3072,3.3063,3.3065,3.3018,3.3001,3.2968,3.2963,3.2952,3.2945,3.295,3.2924,3.2922,3.292,3.2911,3.2908,3.2945,3.2945,3.2945,3.2945,0,3.3175,3.3156,3.3143,3.312,3.3106,3.3086,3.3072,3.3059,3.3054,3.3042,3.3015,3.2995,3.2969,3.2961,3.2953,3.2927,3.2929,3.2928,3.2931,3.2917,3.2909,3.2906,3.2945,3.2945,3.2945,3.2945,0,0,3.3151,3.3126,3.3121,3.3111,3.3089,3.3073,3.3053,3.3031,3.302,3.3001,3.2983,3.2952,3.2952,3.2937,3.2928,3.2914,3.2897,3.2915,3.2914,3.2912,3.2867,3.2867,3.2864,3.2894,3.2893,3.2893,3.2869,0,3.3127,3.3093,3.3086,3.3056,3.3039,3.3034,3.3016,3.3,3.299,3.2972,3.2959,3.2938,3.294,3.2931,3.2917,3.2902,3.2888,3.2904,3.2875,3.2874,3.2881,3.2859,3.2859,3.2837,3.2866,3.2865,3.2865,0,3.3094,3.3078,3.3048,3.303,3.3022,3.3007,3.2987,3.2971,3.2952,3.2946,3.293,3.2924,3.2901,3.2907,3.2876,3.2887,3.2875,3.2866,3.2865,3.2861,3.2868,3.2853,3.283,3.2827,3.286,3.286,3.286,0,3.3079,3.305,3.3029,3.302,3.2999,3.2989,3.2979,3.2961,3.2949,3.2931,3.2923,3.2901,3.2889,3.2872,3.2859,3.2865,3.2829,3.2834,3.2821,3.2822,3.2812,3.2813,3.2786,3.2806,3.2807,3.2807,3.2807,0,3.3053,3.3034,3.3022,3.3009,3.2988,3.2979,3.2958,3.2948,3.2933,3.2916,3.291,3.2895,3.2879,3.2861,3.2851,3.2827,3.2821,3.2814,3.2811,3.2814,3.2815,3.2805,3.2805,3.2806,3.2806,3.2806,3.2806,0,3.3032,3.3023,3.3,3.2983,3.2978,3.2964,3.2948,3.2934,3.2925,3.2905,3.2899,3.2883,3.2862,3.2849,3.282,3.2813,3.2787,3.2784,3.2793,3.2792,3.278,3.2781,3.2745,3.2739,3.2765,3.2764,3.2764,0,3.3015,3.3001,3.2984,3.2974,3.2965,3.2948,3.2937,3.2928,3.2916,3.2896,3.2884,3.2864,3.2846,3.2812,3.2797,3.2775,3.2772,3.2761,3.2769,3.2772,3.2771,3.2772,3.2771,3.2759,3.2759,3.2759,3.2759,0,3.2985,3.2983,3.2968,3.2952,3.2939,3.2925,3.2911,3.2903,3.2892,3.2878,3.2858,3.2845,3.2819,3.2797,3.2775,3.2763,3.2759,3.2757,3.2753,3.2755,3.276,3.2757,3.2789,3.2757,3.2757,3.2757,3.2758,3.2758,3.2965,3.2953,3.294,3.2924,3.2914,3.2902,3.2888,3.2879,3.2863,3.2842,3.2838,3.2817,3.28,3.277,3.2758,3.2741,3.2742,3.2736,3.2734,3.2732,3.2732,3.2765,3.2736,3.2736,3.2736,3.2736,3.2736,0,3.2935,3.2928,3.2913,3.2896,3.2883,3.2884,3.2869,3.2857,3.284,3.2826,3.281,3.2787,3.2768,3.2753,3.2732,3.2721,3.2718,3.2715,3.2715,3.2713,3.2732,3.2738,3.2718,3.2718,3.2718,3.2718,3.2718,3.2718,3.2918,3.2898,3.2894,3.2869,3.2861,3.2842,3.2834,3.2822,3.2812,3.2787,3.2772,3.2764,3.2749,3.2728,3.271,3.2706,3.2698,3.2696,3.2691,3.2709,3.2711,3.2713,3.2718,3.2694,3.2694,3.2673,3.2672,3.2672]}]]